Location: Newark
(38.6500°N, 6.7333°W)
Time: 18:57:09
(UTC+00:00)

N. Korean satellite - Visible Passes

Search period start: 22 March 2019 00:00
Search period end: 01 April 2019 00:00
Orbit: 456 x 510 km, 97.2° (Epoch: 22 March)

Date Brightness Start Highest point End Pass type
(mag) Time Alt. Az. Time Alt. Az. Time Alt. Az.
23 Mar 9.7 05:52:01 10° NE 05:54:45 20° E 05:57:29 10° SE visible
27 Mar 9.8 05:46:19 10° NE 05:48:49 18° E 05:51:21 10° SE visible
31 Mar 9.9 05:40:39 10° NE 05:42:52 15° E 05:45:06 10° SE visible
